Content
SEND FEEDBACK

Daily
Averages
Monthly
Summary
Canada

VANCOUVER, BRITISH COLUMBIA


Home > North America > Canada > British Columbia
Elevation: 2 meters     Latitude: 49 11N     Longitude: 123 10W

WEATHER
 
SELECT A DAY
Number of Records: 252,242;   Date Range: 5/15/97 - 9/30/14
 
SHARE

PRINT THIS DATA

[ ← Previous Day ]
WEATHER ALMANAC - 16 JANUARY, 2013
[ Next Day → ]
[ °F ]   °C
Weather ElementAverageHighLow
Temperature3.3 °C4 °C (2:15 am)2 °C (8:15 pm)
Dewpoint0.2 °C2 °C (1:35 am)-1 °C (8:15 am)
Humidity79.8 %93 % (1:35 am)75 % (5:15 am)
Barometer1036.2 hPa1038.9 hPa (2:15 am)1033.9 hPa (10:15 pm)
Wind Speed3.9 km/h9.3 km/h (12:55 pm)
Weather ElementAverage
Visibility16.1 km
Wind DirectionENE (78.1 °)

Weather ElementTotal
Precipitation---
Heating Degree Days15.3 (Base 18.3)
Averaged from 62 records on 16 January, 2013
WEATHER CONDITIONS BREAKOUT
WIND DIRECTION BREAKOUT
WEATHER BY HOUR - 16 JANUARY, 2013
[ °F ]   °C
Local TimeTemperatureDewpointHumidityBarometerVisibilityWind DirectionWind SpeedGust SpeedPrecipitationEventsConditions
12:35 AM3 °C1 °C87 %1038.6 hPa16.1 kmCalmOvercast
1:15 AM3 °C1 °C87 %1038.6 hPa16.1 kmCalmOvercast
1:35 AM3 °C2 °C93 %1038.6 hPa16.1 kmCalmOvercast
2:15 AM4 °C2 °C87 %1038.9 hPa16.1 kmCalmOvercast
2:55 AM4 °C2 °C87 %1038.9 hPa16.1 kmCalmOvercast
3:15 AM3 °C1 °C87 %1038.9 hPa16.1 kmCalmOvercast
3:35 AM3 °C1 °C87 %1038.6 hPa16.1 kmCalmOvercast
3:55 AM3 °C1 °C87 %1038.6 hPa16.1 kmCalmOvercast
4:15 AM3 °C1 °C87 %1038.6 hPa16.1 kmCalmOvercast
4:35 AM3 °C0 °C81 %1038.3 hPa16.1 kmCalmOvercast
4:55 AM3 °C0 °C81 %1037.9 hPa16.1 kmCalmOvercast
5:15 AM4 °C0 °C75 %1037.9 hPa16.1 kmCalmOvercast
5:55 AM3 °C0 °C81 %1037.6 hPa16.1 kmCalmOvercast
6:15 AM3 °C0 °C81 %1037.3 hPa16.1 kmCalmOvercast
6:35 AM3 °C0 °C81 %1037.3 hPa16.1 kmNorthOvercast
7:15 AM3 °C0 °C81 %1037.3 hPa16.1 kmCalmOvercast
7:55 AM3 °C0 °C81 %1037.6 hPa16.1 kmCalmOvercast
8:15 AM3 °C-1 °C75 %1037.6 hPa16.1 kmEast (80°)5.6 km/hOvercast
8:35 AM3 °C-1 °C75 %1037.6 hPa16.1 kmCalmOvercast
8:55 AM3 °C0 °C81 %1037.6 hPa16.1 kmCalmOvercast
9:15 AM4 °C0 °C75 %1037.6 hPa16.1 kmCalmOvercast
9:35 AM4 °C0 °C75 %1037.6 hPa16.1 kmEast (100°)7.4 km/hOvercast
9:55 AM4 °C0 °C75 %1037.6 hPa16.1 kmCalmOvercast
10:15 AM4 °C0 °C75 %1037.6 hPa16.1 kmNorthOvercast
10:35 AM4 °C0 °C75 %1037.6 hPa16.1 kmNE (40°)5.6 km/hOvercast
10:55 AM4 °C0 °C75 %1037.3 hPa16.1 kmCalmOvercast
11:15 AM4 °C0 °C75 %1037.3 hPa16.1 kmNNE (30°)5.6 km/hOvercast
11:35 AM4 °C0 °C75 %1037.3 hPa16.1 kmNE (50°)5.6 km/hMostly Cloudy
11:55 AM4 °C0 °C75 %1036.9 hPa16.1 kmNorth (10°)7.4 km/hMostly Cloudy
12:15 PM4 °C0 °C75 %1036.6 hPa16.1 kmCalmMostly Cloudy
12:35 PM4 °C0 °C75 %1036.6 hPa16.1 kmCalmPartly Cloudy
12:55 PM4 °C0 °C75 %1036.2 hPa16.1 kmNNE (20°)9.3 km/hClear
1:35 PM4 °C0 °C75 %1035.9 hPa16.1 kmNE (40°)5.6 km/hScattered Clouds
1:55 PM4 °C0 °C75 %1035.9 hPa16.1 kmCalmPartly Cloudy
2:15 PM4 °C0 °C75 %1035.9 hPa16.1 kmNNE (20°)7.4 km/hClear
2:55 PM4 °C0 °C75 %1035.6 hPa16.1 kmCalmClear
3:15 PM4 °C0 °C75 %1035.6 hPa16.1 kmNNE (20°)7.4 km/hClear
3:35 PM4 °C0 °C75 %1035.6 hPa16.1 kmNorth (360°)7.4 km/hClear
3:55 PM4 °C0 °C75 %1035.6 hPa16.1 kmNorth (10°)7.4 km/hPartly Cloudy
4:15 PM4 °C0 °C75 %1035.2 hPa16.1 kmNorth (10°)7.4 km/hScattered Clouds
4:35 PM3 °C0 °C81 %1035.6 hPa16.1 kmNorth (10°)7.4 km/hPartly Cloudy
4:55 PM3 °C0 °C81 %1035.6 hPa16.1 kmNorth (360°)5.6 km/hPartly Cloudy
5:15 PM3 °C0 °C81 %1035.6 hPa16.1 kmNorth (360°)5.6 km/hClear
5:35 PM3 °C0 °C81 %1035.2 hPa16.1 kmNorth (10°)5.6 km/hScattered Clouds
5:55 PM3 °C0 °C81 %1035.2 hPa16.1 kmNNE (20°)9.3 km/hMostly Cloudy
6:15 PM3 °C0 °C81 %1035.2 hPa16.1 kmNorth (10°)5.6 km/hMostly Cloudy
6:35 PM3 °C0 °C81 %1035.2 hPa16.1 kmNorth (10°)7.4 km/hMostly Cloudy
6:55 PM3 °C0 °C81 %1035.2 hPa16.1 kmNorth (10°)7.4 km/hMostly Cloudy
7:15 PM3 °C0 °C81 %1034.9 hPa16.1 kmNorth (360°)9.3 km/hOvercast
7:55 PM3 °C0 °C81 %1034.5 hPa16.1 kmNorth (360°)9.3 km/hClear
8:15 PM2 °C0 °C87 %1034.5 hPa16.1 kmNorth (10°)5.6 km/hClear
8:35 PM3 °C0 °C81 %1034.5 hPa16.1 kmCalmClear
8:55 PM3 °C0 °C81 %1034.2 hPa16.1 kmNorth (360°)7.4 km/hClear
9:15 PM3 °C0 °C81 %1034.2 hPa16.1 kmNorth (10°)7.4 km/hClear
9:35 PM3 °C0 °C81 %1034.5 hPa16.1 kmNorth (360°)9.3 km/hClear
9:55 PM3 °C0 °C81 %1034.2 hPa16.1 kmCalmClear
10:15 PM3 °C0 °C81 %1033.9 hPa16.1 kmNorth (360°)5.6 km/hClear
10:35 PM3 °C0 °C81 %1033.9 hPa16.1 kmNorth (360°)5.6 km/hClear
10:55 PM3 °C0 °C81 %1033.9 hPa16.1 kmNorth (360°)7.4 km/hClear
11:15 PM3 °C0 °C81 %1034.2 hPa16.1 kmCalmClear
11:35 PM3 °C0 °C81 %1033.9 hPa16.1 kmNorth (360°)7.4 km/hClear
11:55 PM3 °C0 °C81 %1033.9 hPa16.1 kmNorth (360°)9.3 km/hClear
Hourly data recorded from CZBB, located 0 kilometers away from Vancouver, British Columbia







STORIES FROM OUR PARTNERS